Date String (YYYY-MM-DD hh:mm:ss) UTC,Instrument flags,absolute air pressure of the measurement (hPa),sample flow rate (lpm),inlet stack bypass flow (lpm),air temperature of the measurement (°C),ambient temperature measured by the external sensor (°C),aerosol sample conditioner tube jacket temperature (°C),OPC LED temperature (°C),internal box temperature (°C),relative humidity of the measurement (%),span deviation,mass concentration of particles derived from Lorenz-Mie calculation of OPC scattering (μg/m³),mass concentration of particles derived from Lorenz-Mie calculation of OPC scattering (μg/m³),mass concentration of particles derived from Lorenz-Mie calculation of OPC scattering (μg/m³)
DateTimeUTC,F1_M11,P_M11,Q1_M11,Q2_M11,T1_M11,T2_M11,T3_M11,T4_M11,T5_M11,U1_M11,ZSPAN_M11,X2_M11,X0_M11,X1_M11
2023-06-28 03:00:00,SystemResetWarning,0825.6,5.00,000.00,029.3,028.0,000.0,037.7,031.1,8.7,0000.0,0002.31,0008.08,0001.55
2023-06-28 03:01:00,SystemResetWarning,0825.6,4.99,000.00,029.4,027.5,000.0,037.7,031.2,8.8,0000.0,0002.24,0008.03,0001.55
2023-06-28 03:02:00,SystemResetWarning,0825.6,4.99,000.00,029.4,025.5,000.0,037.7,031.1,9.1,0000.0,0002.24,0008.10,0001.55
2023-06-28 03:03:00,SystemResetWarning,0825.6,5.01,000.00,029.4,025.3,000.0,037.7,031.1,9.6,0000.0,0002.22,0008.05,0001.55
2023-06-28 03:04:00,SystemResetWarning,0825.6,5.00,000.00,029.3,025.6,000.0,037.7,030.8,9.8,0000.0,0002.27,0007.88,0001.54
2023-06-28 03:05:00,SystemResetWarning,0825.6,5.00,000.00,029.3,026.0,000.0,037.7,030.7,9.7,0000.0,0002.33,0007.31,0001.54
2023-06-28 03:06:00,SystemResetWarning,0825.6,5.00,000.00,029.3,026.4,000.0,037.7,030.7,9.3,0000.0,0002.37,0007.50,0001.54
2023-06-28 03:07:00,SystemResetWarning,0825.6,4.99,000.00,029.3,026.8,000.0,037.7,030.8,9.3,0000.0,0002.40,0007.38,0001.53
2023-06-28 03:08:00,SystemResetWarning,0825.7,5.00,000.00,029.3,027.2,000.0,037.7,030.9,9.2,0000.0,0002.36,0007.41,0001.54
2023-06-28 03:09:00,SystemResetWarning,0825.6,5.00,000.00,029.4,027.5,000.0,037.8,031.0,9.5,0000.0,0002.35,0007.96,0001.55
2023-06-28 03:10:00,SystemResetWarning,0825.7,5.01,000.00,029.4,027.8,000.0,037.8,031.0,9.8,0000.0,0002.37,0008.03,0001.56
2023-06-28 03:11:00,SystemResetWarning,0825.7,5.00,000.00,029.5,028.0,000.0,037.8,031.1,10.1,0000.0,0002.37,0007.28,0001.57
2023-06-28 03:12:00,SystemResetWarning,0825.7,4.98,000.00,029.5,026.9,000.0,037.8,031.2,10.3,0000.0,0002.39,0007.23,0001.58
2023-06-28 03:13:00,SystemResetWarning,0825.6,5.00,000.00,029.5,025.3,000.0,037.8,031.1,10.3,0000.0,0002.41,0007.41,0001.58
2023-06-28 03:14:00,SystemResetWarning,0825.6,5.02,000.00,029.5,025.4,000.0,037.7,031.0,10.3,0000.0,0002.45,0007.44,0001.60
2023-06-28 03:15:00,SystemResetWarning,0825.7,4.99,000.00,029.4,025.8,000.0,037.8,030.8,9.8,0000.0,0002.41,0007.40,0001.61
2023-06-28 03:16:00,SystemResetWarning,0825.7,4.99,000.00,029.4,026.2,000.0,037.8,030.8,9.9,0000.0,0002.38,0007.00,0001.61
2023-06-28 03:17:00,SystemResetWarning,0825.8,5.02,000.00,029.4,026.6,000.0,037.8,030.8,10.4,0000.0,0002.36,0006.30,0001.63
2023-06-28 03:18:00,SystemResetWarning,0825.7,5.01,000.00,029.4,027.0,000.0,037.8,030.9,10.5,0000.0,0002.41,0006.41,0001.65
2023-06-28 03:19:00,SystemResetWarning,0825.8,5.00,000.00,029.4,027.3,000.0,037.8,031.0,10.4,0000.0,0002.45,0007.44,0001.65
2023-06-28 03:20:00,SystemResetWarning,0825.9,5.00,000.00,029.4,027.6,000.0,037.9,031.0,10.1,0000.0,0002.47,0006.96,0001.65
2023-06-28 03:21:00,SystemResetWarning,0825.9,5.00,000.00,029.5,027.9,000.0,037.9,031.1,10.3,0000.0,0002.44,0006.36,0001.65
2023-06-28 03:22:00,SystemResetWarning,0825.9,4.99,000.00,029.5,027.1,000.0,037.9,031.2,10.2,0000.0,0002.49,0006.85,0001.65
2023-06-28 03:23:00,SystemResetWarning,0825.9,5.00,000.00,029.5,025.3,000.0,037.8,031.1,10.3,0000.0,0002.57,0008.11,0001.65
2023-06-28 03:24:00,SystemResetWarning,0825.9,5.02,000.00,029.5,025.3,000.0,037.8,031.1,10.2,0000.0,0002.60,0008.50,0001.66
2023-06-28 03:25:00,SystemResetWarning,0825.9,4.99,000.00,029.4,025.7,000.0,037.8,030.8,10.4,0000.0,0002.62,0008.46,0001.67
2023-06-28 03:26:00,SystemResetWarning,0825.9,4.99,000.00,029.4,026.1,000.0,037.8,030.8,10.6,0000.0,0002.67,0008.52,0001.68
2023-06-28 03:27:00,SystemResetWarning,0825.9,5.00,000.00,029.4,026.5,000.0,037.8,030.8,10.7,0000.0,0002.69,0008.62,0001.68
2023-06-28 03:28:00,SystemResetWarning,0825.9,5.02,000.00,029.4,026.9,000.0,037.8,030.9,10.7,0000.0,0002.70,0008.66,0001.67
2023-06-28 03:29:00,SystemResetWarning,0825.9,5.00,000.00,029.4,027.2,000.0,037.8,030.9,10.4,0000.0,0002.65,0008.66,0001.65
2023-06-28 03:30:00,SystemResetWarning,0825.9,4.99,000.00,029.4,027.5,000.0,037.9,031.0,10.0,0000.0,0002.61,0008.35,0001.67
2023-06-28 03:31:00,SystemResetWarning,0825.9,5.00,000.00,029.5,027.8,000.0,037.9,031.1,10.0,0000.0,0002.56,0008.32,0001.68
2023-06-28 03:32:00,SystemResetWarning,0825.9,5.00,000.00,029.5,027.9,000.0,037.9,031.2,10.1,0000.0,0002.59,0008.39,0001.69
2023-06-28 03:33:00,SystemResetWarning,0825.8,4.99,000.00,029.5,026.3,000.0,037.9,031.2,10.2,0000.0,0002.59,0008.19,0001.70
2023-06-28 03:34:00,SystemResetWarning,0825.8,5.00,000.00,029.5,024.2,000.0,037.8,030.9,10.2,0000.0,0002.60,0007.58,0001.70
2023-06-28 03:35:00,SystemResetWarning,0825.9,5.01,000.00,029.4,024.2,000.0,037.8,030.9,10.1,0000.0,0002.62,0006.97,0001.69
2023-06-28 03:36:00,SystemResetWarning,0825.9,5.01,000.00,029.3,024.6,000.0,037.7,030.6,10.5,0000.0,0002.64,0007.11,0001.68
2023-06-28 03:37:00,SystemResetWarning,0825.9,5.00,000.00,029.2,025.1,000.0,037.7,030.5,10.4,0000.0,0002.63,0007.21,0001.67
2023-06-28 03:38:00,SystemResetWarning,0825.9,5.00,000.00,029.2,025.7,000.0,037.8,030.5,10.3,0000.0,0002.59,0007.27,0001.67
2023-06-28 03:39:00,SystemResetWarning,0825.9,4.99,000.00,029.2,026.2,000.0,037.8,030.6,10.0,0000.0,0002.62,0007.83,0001.69
2023-06-28 03:40:00,SystemResetWarning,0825.9,4.99,000.00,029.2,026.6,000.0,037.8,030.7,10.2,0000.0,0002.64,0008.51,0001.70
2023-06-28 03:41:00,SystemResetWarning,0825.9,4.99,000.00,029.2,027.0,000.0,037.8,030.8,9.8,0000.0,0002.63,0008.76,0001.69
2023-06-28 03:42:00,SystemResetWarning,0825.9,5.00,000.00,029.3,027.3,000.0,037.8,030.8,10.0,0000.0,0002.66,0008.79,0001.70
2023-06-28 03:43:00,SystemResetWarning,0825.9,5.01,000.00,029.3,027.5,000.0,037.8,030.9,9.9,0000.0,0002.67,0009.20,0001.70
2023-06-28 03:44:00,SystemResetWarning,0826.0,5.01,000.00,029.4,027.7,000.0,037.8,031.0,10.1,0000.0,0002.62,0009.08,0001.68
2023-06-28 03:45:00,SystemResetWarning,0826.0,5.00,000.00,029.4,027.9,000.0,037.8,031.1,9.9,0000.0,0002.56,0008.64,0001.67
2023-06-28 03:46:00,SystemResetWarning,0826.0,5.00,000.00,029.4,028.1,000.0,037.9,031.1,9.8,0000.0,0002.52,0009.19,0001.67
2023-06-28 03:47:00,SystemResetWarning,0826.0,5.00,000.00,029.5,028.1,000.0,037.9,031.2,9.7,0000.0,0002.54,0009.79,0001.67
2023-06-28 03:48:00,SystemResetWarning,0826.0,4.99,000.00,029.5,026.3,000.0,037.8,031.2,9.5,0000.0,0002.55,0009.86,0001.68
2023-06-28 03:49:00,SystemResetWarning,0826.0,5.01,000.00,029.5,025.2,000.0,037.8,031.2,9.5,0000.0,0002.62,0010.41,0001.67
2023-06-28 03:50:00,SystemResetWarning,0826.0,5.01,000.00,029.5,025.4,000.0,037.8,031.0,9.4,0000.0,0002.61,0010.04,0001.65
2023-06-28 03:51:00,SystemResetWarning,0826.0,5.00,000.00,029.4,025.7,000.0,037.8,030.8,9.3,0000.0,0002.60,0009.64,0001.65
2023-06-28 03:52:00,SystemResetWarning,0826.0,5.00,000.00,029.4,026.2,000.0,037.8,030.8,9.6,0000.0,0002.58,0009.06,0001.65
2023-06-28 03:53:00,SystemResetWarning,0826.1,4.99,000.00,029.4,026.6,000.0,037.8,030.8,9.4,0000.0,0002.57,0009.09,0001.65
2023-06-28 03:54:00,SystemResetWarning,0826.1,4.99,000.00,029.4,027.0,000.0,037.8,030.9,9.4,0000.0,0002.56,0008.60,0001.65
2023-06-28 03:55:00,SystemResetWarning,0826.1,5.00,000.00,029.4,027.3,000.0,037.9,030.9,9.2,0000.0,0002.56,0008.66,0001.65
2023-06-28 03:56:00,SystemResetWarning,0826.0,5.01,000.00,029.4,027.5,000.0,037.9,031.0,9.1,0000.0,0002.61,0009.10,0001.67
2023-06-28 03:57:00,SystemResetWarning,0826.0,5.01,000.00,029.5,027.8,000.0,037.9,031.1,8.9,0000.0,0002.59,0008.55,0001.67
2023-06-28 03:58:00,SystemResetWarning,0826.1,4.99,000.00,029.5,027.9,000.0,037.9,031.1,8.6,0000.0,0002.52,0008.79,0001.67
2023-06-28 03:59:00,SystemResetWarning,0826.1,4.99,000.00,029.5,028.1,000.0,037.9,031.2,8.4,0000.0,0002.54,0009.06,0001.68
